Tracking 19634 objects as of 22-May-2019
HD Live streaming from Space Station
objects crossing your sky now

NEE 02 KRYSAOR

Track NEE 02 KRYSAOR now!
10-day predictions
NEE 02 KRYSAOR is classified as:


NORAD ID: 39441
Int'l Code: 2013-066AB
Perigee: 595.2 km
Apogee: 710.0 km
Inclination: 97.6 °
Period: 97.6 minutes
Semi major axis: 7023 km
RCS: Unknown
Launch date: November 21, 2013
Source: Ecuador (ECU)
Launch site: Orenburg, Russia (OREN)

Uplink (MHz):
Downlink (MHz): 980.000(bandwidth 25MHz)
Beacon (MHz):
Mode:
Call sign:
Status:

aabbcc
Your satellite tracking list
Your tracking list is empty




NASA's NSSDC Master Catalog

Two Line Element Set (TLE):
1 39441U 13066AB  19141.97886329  .00000083  00000-0  18903-4 0  9991
2 39441  97.6057 139.8669 0081739 180.6900 179.4210 14.74897726295714
Source of the keplerian elements: AFSPC